Location: Pian di Sc�
(43.6333°N, 11.5500°E)
Time: 09:24:08
(UTC+00:00)

USA 215 - Pass Details

Date: 07 August 2020
Orbit: 1102 x 1106 km, 123.0° (Epoch: 08 August)

Event Time Altitude Azimuth Distance (km) Brightness Sun altitude
Rises 01:39:14 0° 49° (NE) 3,927 7.6 -22.1°
Reaches altitude 10° 01:41:43 10° 48° (NE) 2,967 6.6 -21.8°
Maximum altitude 01:48:17 84° 323° (NW) 1,113 3.2 -21.1°
Enters shadow 01:51:28 34° 237° (WSW) 1,744 3.8 -20.7°
